Date String (YYYY-MM-DD hh:mm:ss) UTC,Instrument flags,Ambient pressure (hPa),Sample flow (lpm),Bypass flow (lpm),Sample temperature (°C),Ambient temperature (°C),ASC tube jacket temperature (°C),LED temperature (°C),Box temperature (°C),Sample RH (%),Span deviation,Mass concentration (μg/m³),Mass concentration (μg/m³),Mass concentration (μg/m³)
DateTimeUTC,F1_M11,P_M11,Q1_M11,Q2_M11,T1_M11,T2_M11,T3_M11,T4_M11,T5_M11,U1_M11,ZSPAN_M11,X0_M11,X2_M11,X1_M11
2023-03-06 14:00:00,,0823.7,5.00,0.00,22.1,20.2,00.0,30.9,23.7,08.3,0000.0,0004.87,0002.08,0001.40
2023-03-06 14:01:00,,0823.8,5.01,0.00,22.1,20.6,00.0,30.9,23.8,08.3,0000.0,0005.08,0002.15,0001.41
2023-03-06 14:02:00,,0823.8,5.00,0.00,22.2,21.9,00.0,30.9,24.1,08.3,0000.0,0005.24,0002.20,0001.42
2023-03-06 14:03:00,,0823.8,5.01,0.00,22.3,23.1,00.0,30.9,24.3,08.5,0000.0,0005.25,0002.18,0001.42
2023-03-06 14:04:00,,0823.8,5.01,0.00,22.4,23.2,00.0,31.0,24.4,08.5,0000.0,0005.40,0002.19,0001.41
2023-03-06 14:05:00,,0823.7,4.99,0.00,22.4,22.6,00.0,31.0,24.3,08.3,0000.0,0005.69,0002.24,0001.41
2023-03-06 14:06:00,,0823.8,4.98,0.00,22.4,22.1,00.0,31.0,24.2,08.3,0000.0,0005.16,0002.27,0001.41
2023-03-06 14:07:00,,0823.8,5.01,0.00,22.4,21.7,00.0,31.0,24.1,08.3,0000.0,0004.66,0002.26,0001.43
2023-03-06 14:08:00,,0823.9,5.01,0.00,22.4,21.3,00.0,31.1,24.1,08.4,0000.0,0004.62,0002.32,0001.43
2023-03-06 14:09:00,,0823.9,5.01,0.00,22.4,21.1,00.0,31.1,24.1,08.5,0000.0,0004.57,0002.34,0001.42
2023-03-06 14:10:00,,0824.0,4.99,0.00,22.3,20.9,00.0,31.0,24.0,08.4,0000.0,0004.57,0002.32,0001.43
2023-03-06 14:11:00,,0823.9,5.00,0.00,22.3,20.7,00.0,31.0,24.0,08.5,0000.0,0004.56,0002.32,0001.42
2023-03-06 14:12:00,,0824.0,5.00,0.00,22.3,20.6,00.0,31.0,23.9,08.5,0000.0,0004.54,0002.29,0001.43
2023-03-06 14:13:00,,0824.0,5.01,0.00,22.3,20.5,00.0,31.0,23.9,08.5,0000.0,0005.09,0002.23,0001.40
2023-03-06 14:14:00,,0824.0,4.99,0.00,22.2,20.4,00.0,31.0,23.9,08.6,0000.0,0005.21,0002.28,0001.41
2023-03-06 14:15:00,,0824.0,5.00,0.00,22.2,20.4,00.0,31.0,23.9,08.5,0000.0,0005.16,0002.27,0001.43
2023-03-06 14:16:00,,0824.0,5.00,0.00,22.2,20.3,00.0,31.0,23.8,08.8,0000.0,0004.88,0002.18,0001.42
2023-03-06 14:17:00,,0824.0,5.00,0.00,22.2,20.3,00.0,31.0,23.8,08.8,0000.0,0004.85,0002.16,0001.41
2023-03-06 14:18:00,,0824.0,5.00,0.00,22.1,20.3,00.0,30.9,23.7,08.4,0000.0,0004.93,0002.19,0001.39
2023-03-06 14:19:00,,0824.0,5.01,0.00,22.2,21.3,00.0,30.9,23.9,08.5,0000.0,0005.04,0002.19,0001.38
2023-03-06 14:20:00,,0824.1,4.99,0.00,22.3,22.7,00.0,30.9,24.2,08.6,0000.0,0004.93,0002.17,0001.39
2023-03-06 14:21:00,,0824.1,4.98,0.00,22.4,22.9,00.0,31.0,24.3,08.5,0000.0,0004.99,0002.19,0001.38
2023-03-06 14:22:00,,0824.1,4.98,0.00,22.4,22.4,00.0,31.0,24.2,08.6,0000.0,0004.95,0002.18,0001.38
2023-03-06 14:23:00,,0824.1,5.00,0.00,22.4,21.9,00.0,31.0,24.2,09.1,0000.0,0004.98,0002.19,0001.37
2023-03-06 14:24:00,,0824.1,5.02,0.00,22.4,21.6,00.0,31.0,24.1,09.4,0000.0,0004.37,0002.22,0001.38
2023-03-06 14:25:00,,0824.1,5.01,0.00,22.4,21.3,00.0,31.0,24.1,09.5,0000.0,0004.25,0002.17,0001.37
2023-03-06 14:26:00,,0824.1,5.00,0.00,22.4,21.1,00.0,31.0,24.1,09.5,0000.0,0004.09,0002.14,0001.37
2023-03-06 14:27:00,,0824.1,5.00,0.00,22.3,20.9,00.0,31.0,24.0,09.5,0000.0,0004.12,0002.19,0001.38
2023-03-06 14:28:00,,0824.1,5.02,0.00,22.3,20.8,00.0,31.0,24.0,09.4,0000.0,0004.09,0002.19,0001.39
2023-03-06 14:29:00,,0824.2,4.98,0.00,22.3,20.7,00.0,31.0,24.0,09.4,0000.0,0004.12,0002.18,0001.41
2023-03-06 14:30:00,,0824.2,5.02,0.00,22.3,20.7,00.0,31.0,24.0,09.7,0000.0,0004.11,0002.17,0001.42
2023-03-06 14:31:00,,0824.2,4.99,0.00,22.3,20.6,00.0,31.0,23.9,09.8,0000.0,0004.12,0002.18,0001.43
2023-03-06 14:32:00,,0824.2,4.99,0.00,22.3,20.5,00.0,31.0,23.9,09.7,0000.0,0004.07,0002.18,0001.43
2023-03-06 14:33:00,,0824.2,5.01,0.00,22.2,20.5,00.0,31.0,23.9,09.6,0000.0,0004.30,0002.26,0001.43
2023-03-06 14:34:00,,0824.2,4.98,0.00,22.2,20.5,00.0,31.0,23.9,09.7,0000.0,0004.29,0002.30,0001.45
2023-03-06 14:35:00,,0824.2,5.01,0.00,22.2,20.4,00.0,31.0,23.9,09.8,0000.0,0004.37,0002.35,0001.47
2023-03-06 14:36:00,,0824.2,5.03,0.00,22.2,20.4,00.0,31.0,23.9,09.9,0000.0,0004.63,0002.40,0001.47
2023-03-06 14:37:00,,0824.2,4.97,0.00,22.2,20.6,00.0,31.0,23.9,09.7,0000.0,0004.80,0002.43,0001.47
2023-03-06 14:38:00,,0824.3,4.99,0.00,22.2,22.1,00.0,30.9,24.1,09.9,0000.0,0005.20,0002.43,0001.48
2023-03-06 14:39:00,,0824.2,5.04,0.00,22.4,23.3,00.0,31.0,24.4,09.8,0000.0,0005.96,0002.44,0001.48
2023-03-06 14:40:00,,0824.3,5.02,0.00,22.5,23.1,00.0,31.0,24.4,09.5,0000.0,0006.05,0002.49,0001.48
2023-03-06 14:41:00,,0824.2,5.02,0.00,22.5,22.6,00.0,31.1,24.3,09.5,0000.0,0006.42,0002.55,0001.50
2023-03-06 14:42:00,,0824.3,5.01,0.00,22.5,22.2,00.0,31.1,24.3,09.7,0000.0,0006.80,0002.56,0001.50
2023-03-06 14:43:00,,0824.3,4.99,0.00,22.5,21.8,00.0,31.1,24.3,09.7,0000.0,0006.97,0002.57,0001.50
2023-03-06 14:44:00,,0824.3,5.01,0.00,22.5,21.6,00.0,31.1,24.2,09.6,0000.0,0007.67,0002.54,0001.51
2023-03-06 14:45:00,,0824.2,5.01,0.00,22.5,21.3,00.0,31.1,24.2,09.6,0000.0,0007.85,0002.56,0001.52
2023-03-06 14:46:00,,0824.4,5.01,0.00,22.5,21.2,00.0,31.1,24.2,09.4,0000.0,0007.88,0002.56,0001.54
2023-03-06 14:47:00,,0824.2,5.00,0.00,22.4,21.0,00.0,31.1,24.1,09.8,0000.0,0007.83,0002.56,0001.55
2023-03-06 14:48:00,,0824.3,5.00,0.00,22.4,20.9,00.0,31.1,24.1,09.8,0000.0,0007.81,0002.57,0001.55
2023-03-06 14:49:00,,0824.3,5.00,0.00,22.4,20.9,00.0,31.1,24.1,09.7,0000.0,0007.83,0002.57,0001.54
2023-03-06 14:50:00,,0824.4,4.99,0.00,22.4,20.8,00.0,31.1,24.1,09.6,0000.0,0007.36,0002.56,0001.54
2023-03-06 14:51:00,,0824.4,5.01,0.00,22.4,20.8,00.0,31.1,24.1,09.8,0000.0,0007.32,0002.52,0001.55
2023-03-06 14:52:00,,0824.3,4.99,0.00,22.4,20.8,00.0,31.1,24.1,09.6,0000.0,0006.93,0002.45,0001.55
2023-03-06 14:53:00,,0824.3,5.00,0.00,22.3,20.7,00.0,31.1,24.0,09.4,0000.0,0006.48,0002.46,0001.57
2023-03-06 14:54:00,,0824.4,5.01,0.00,22.3,20.6,00.0,31.1,23.9,09.3,0000.0,0006.50,0002.50,0001.62
2023-03-06 14:55:00,,0824.3,5.00,0.00,22.3,20.6,00.0,31.1,24.0,09.3,0000.0,0005.40,0002.47,0001.65
2023-03-06 14:56:00,,0824.4,5.00,0.00,22.3,20.6,00.0,31.1,24.0,09.3,0000.0,0004.80,0002.40,0001.65
2023-03-06 14:57:00,,0824.4,4.99,0.00,22.3,20.6,00.0,31.1,24.0,09.3,0000.0,0004.57,0002.35,0001.66
2023-03-06 14:58:00,,0824.3,5.00,0.00,22.3,20.6,00.0,31.0,24.0,09.4,0000.0,0004.45,0002.33,0001.68
2023-03-06 14:59:00,,0824.4,5.01,0.00,22.3,20.7,00.0,31.0,24.0,09.5,0000.0,0004.50,0002.34,0001.71
